Location: Rodanthe
(35.5920°N, 75.4670°W)
Time: 06:21:57
(UTC-04:00)

ISS - All Passes

Search period start: 01 October 2016 00:00
Search period end: 11 October 2016 00:00
Orbit: 400 x 410 km, 51.6° (Epoch: 01 October)

Date Brightness Start Highest point End Pass type
(mag) Time Alt. Az. Time Alt. Az. Time Alt. Az.
01 Oct - 01:27:39 10° NNW 01:30:09 20° NNE 01:32:39 10° E night (unlit)
01 Oct - 03:03:39 10° WNW 03:06:45 40° SW 03:09:51 10° SSE night (unlit)
01 Oct - 18:05:33 10° S 18:08:12 23° SE 18:10:52 10° ENE daylight
01 Oct - 19:41:44 10° W 19:44:35 28° NW 19:47:27 10° NNE visible
02 Oct - 00:36:13 10° N 00:37:48 13° NNE 00:39:23 10° NE night (unlit)
02 Oct - 02:11:25 10° NW 02:14:42 90° NNE 02:17:59 10° SE night (unlit)
02 Oct - 17:15:09 10° SSE 17:16:16 11° SE 17:17:24 10° ESE daylight
02 Oct - 18:49:12 10° WSW 18:52:23 53° NW 18:55:35 10° NE daylight
03 Oct - 01:19:25 10° NW 01:22:33 42° NE 01:25:42 10° ESE night (unlit)
03 Oct - 02:56:49 10° W 02:58:45 15° SW 03:00:42 10° SSW night (unlit)
03 Oct - 17:57:02 10° SW 18:00:15 70° SE 18:03:29 10° NE daylight
03 Oct - 19:35:09 10° WNW 19:37:03 14° NNW 19:38:58 10° N visible
04 Oct - 00:27:35 10° NNW 00:30:18 23° NNE 00:33:01 10° E night (unlit)
04 Oct - 02:03:52 10° WNW 02:06:48 30° SW 02:09:43 10° SSE night (unlit)
04 Oct - 17:05:18 10° SSW 17:08:12 31° SE 17:11:07 10° ENE daylight
04 Oct - 18:42:02 10° W 18:44:42 23° NNW 18:47:22 10° NNE daylight
04 Oct - 23:35:58 10° N 23:37:57 15° NNE 23:39:56 10° ENE night (unlit)
05 Oct - 01:11:29 10° NW 01:14:44 68° SW 01:17:59 10° SE night (unlit)
05 Oct - 16:14:16 10° SSE 16:16:13 15° SE 16:18:10 10° E daylight
05 Oct - 17:49:20 10° WSW 17:52:25 41° NW 17:55:32 10° NE daylight
06 Oct - 00:19:21 10° NW 00:22:35 55° NE 00:25:48 10° ESE night (unlit)
06 Oct - 01:57:36 10° WSW 01:58:41 11° SW 01:59:47 10° SW night (unlit)
06 Oct - 16:56:59 10° SW 17:00:14 87° NW 17:03:28 10° NE daylight
06 Oct - 18:35:39 10° NW 18:37:08 12° NNW 18:38:37 10° N daylight
06 Oct - 23:27:25 10° NNW 23:30:19 28° NE 23:33:13 10° E night (unlit)
07 Oct - 01:04:03 10° WNW 01:06:42 23° SW 01:09:22 10° S night (unlit)
07 Oct - 16:05:03 10° SSW 16:08:06 41° SE 16:11:11 10° ENE daylight
07 Oct - 17:42:17 10° W 17:44:42 19° NNW 17:47:08 10° NNE daylight
07 Oct - 22:35:42 10° NNW 22:37:58 17° NNE 22:40:15 10° ENE night (unlit)
08 Oct - 00:11:28 10° WNW 00:14:38 50° SW 00:17:49 10° SSE night (unlit)
08 Oct - 15:13:39 10° S 15:16:03 19° SE 15:18:28 10° E daylight
08 Oct - 16:49:24 10° WSW 16:52:21 32° NW 16:55:20 10° NNE daylight
08 Oct - 21:44:21 10° N 21:45:31 11° NNE 21:46:41 10° NE night (unlit)
08 Oct - 23:19:13 10° NW 23:22:29 73° NE 23:25:45 10° SE night (unlit)
09 Oct - 15:56:53 10° SW 16:00:06 66° NW 16:03:20 10° NE daylight
09 Oct - 17:36:14 10° NW 17:37:06 11° NNW 17:38:00 10° N daylight
09 Oct - 22:27:10 10° NNW 22:30:13 35° NE 22:33:16 10° ESE night (unlit)
10 Oct - 00:04:12 10° W 00:06:30 18° SW 00:08:47 10° S night (unlit)
10 Oct - 15:04:44 10° SSW 15:07:55 55° SE 15:11:05 10° ENE daylight
10 Oct - 16:42:28 10° WNW 16:44:37 16° NNW 16:46:46 10° NNE daylight
10 Oct - 21:35:20 10° NNW 21:37:52 20° NNE 21:40:24 10° E night (unlit)
10 Oct - 23:11:23 10° WNW 23:14:26 37° SW 23:17:28 10° SSE night (unlit)
